Hourly Data Report for October 31, 2014

All times are specified in Local Standard Time (LST). Add 1 hour to adjust for Daylight Saving Time where and when it is observed.

PANGNIRTUNG
NUNAVUT

66°08'36.300" N
65°42'40.500" W
22.60 m
2403049
71826
WXP

Download Data

Hourly Data (October 2014)
Hourly Data Report for October 31, 2014
Temp Definition
°C
Dew Point Temp Definition
°C
Rel Hum Definition
%
Wind Dir Definition
10's deg

Wind Spd Definition
km/h
Visibility Definition
km
Stn Press Definition
kPa
Hmdx Definition


Wind Chill Definition


Weather Definition


TIME
00:00 2.0 -3.8 65 7 24   100.13     LegendNANA
01:00 2.0 -3.7 66 7 26   100.16     LegendNANA
02:00 2.2 -3.9 64 7 26   100.16     LegendNANA
03:00 3.0 -3.7 62 8 23   100.15     LegendNANA
04:00 3.3 -3.8 59 7 23   100.14     LegendNANA
05:00 3.7 -4.0 57 6 29   100.16     LegendNANA
06:00 3.3 -3.7 60 7 27   100.19     LegendNANA
07:00 3.5 -3.9 59 7 26   100.21     LegendNANA
08:00 3.0 -3.5 62 7 24   100.24     LegendNANA
09:00 3.4 -3.9 59 8 29   100.25     LegendNANA
10:00 3.3 -3.6 61 7 19   100.31     LegendNANA
11:00 4.0 -3.9 56 7 27   100.32     LegendNANA
12:00 3.0 -3.5 62 7 24   100.36     LegendNANA
13:00 2.6 -3.2 65 7 17   100.43     LegendNANA
14:00 2.4 -3.1 67 7 22   100.49     LegendNANA
15:00 2.4 -3.5 65 7 26   100.57     LegendNANA
16:00 2.4 -3.7 64 6 25   100.64     LegendNANA
17:00 1.9 -3.5 68 6 24   100.70     LegendNANA
18:00 1.5 -3.4 70 6 21   100.77     LegendNANA
19:00 1.5 -3.3 70 7 20   100.83     LegendNANA
20:00 1.2 -3.6 71 7 16   100.90     LegendNANA
21:00 1.2 -3.8 70 9 14   100.92     LegendNANA
22:00 0.8 -3.7 72 6 7   100.94     LegendNANA
23:00 1.0 -3.6 71 9 3   100.96     LegendNANA

Notes on Data Quality.

Legend

  • E = Estimated
  • M = Missing
  • NA = Not Available
  • ‡ = Partner data that is not subject to review by the National Climate Archives
Date modified: